Theta_e
300 300 300 299 298 297 297 298 298 297 297 298 299 300 302 306 309 308 306 305 305 307 310 310 311 313 314 310 306 308 309 307 308 310 312 311 309 310 311 311 311 310 310 313 316 319 320 320 323 324 321 320 318 317 321 325 325 326 324 321 324 326 325 322 319 323 328 324 319 319 321 325 328 328 328 327 323 324 331 333 331 328 323 323 330 329 323
300 300 299 298 298 297 298 298 298 297 297 298 299 300 303 305 306 307 307 305 306 309 311 312 313 313 314 313 311 312 312 309 308 310 312 312 310 312 312 310 311 311 312 315 314 316 322 321 319 322 322 320 318 318 324 328 328 327 324 323 322 318 319 322 325 327 329 327 326 324 325 331 331 328 327 326 321 322 323 326 332 330 323 324 329 330 328
300 300 299 298 298 297 298 298 298 297 297 298 299 301 302 305 307 307 307 305 306 311 314 314 315 315 316 317 317 317 315 313 311 310 313 312 309 310 310 309 312 313 315 318 315 316 323 321 318 322 323 321 319 318 322 329 331 328 325 328 329 323 323 330 333 329 327 329 331 327 326 330 327 325 327 325 323 323 321 323 330 325 319 324 334 333 330
300 299 298 298 298 297 298 298 297 297 297 298 299 300 302 307 308 307 308 307 307 311 312 313 316 317 317 318 317 317 317 316 315 313 313 311 308 310 311 310 314 316 317 320 318 316 319 320 320 322 323 321 319 318 320 325 330 329 325 327 333 330 323 324 329 329 329 331 328 322 324 330 328 326 327 326 324 324 326 328 329 323 322 328 333 330 330
300 299 298 298 297 297 298 298 297 297 297 298 300 301 302 306 308 308 309 309 309 311 312 314 316 317 316 315 315 317 318 316 313 311 310 310 309 311 311 312 314 315 317 321 320 317 319 320 320 321 320 319 320 320 319 321 326 329 324 324 332 336 326 320 320 320 319 321 319 316 320 325 324 324 325 324 323 328 337 336 325 322 326 329 327 326 332
299 298 298 297 297 297 298 297 297 297 298 298 299 301 303 306 309 309 309 311 311 311 312 314 316 316 315 315 315 317 317 316 313 309 310 312 312 313 314 314 314 316 320 323 321 319 321 320 318 320 320 319 323 323 318 319 325 329 326 322 329 337 329 321 320 319 316 316 315 315 317 317 316 318 320 320 320 326 336 332 320 322 332 332 327 328 330
299 298 297 297 297 298 297 297 297 297 298 299 299 301 304 307 309 309 309 312 312 312 312 314 316 316 316 316 317 317 316 318 315 310 313 315 312 314 318 315 313 316 322 327 324 320 323 320 315 317 319 318 321 322 318 318 323 330 330 322 323 330 326 319 321 321 317 315 314 314 315 316 316 317 317 319 319 320 324 322 317 322 331 330 327 327 323
298 297 297 297 297 298 297 297 297 298 298 299 300 301 304 307 309 308 310 312 312 312 314 315 315 316 316 317 318 315 315 318 315 310 311 314 312 314 316 312 310 312 319 324 321 317 323 323 315 317 319 317 317 319 318 318 321 328 329 320 318 326 323 318 322 324 319 315 313 313 315 315 316 318 316 318 320 320 321 322 321 323 326 324 324 325 320
297 297 297 297 297 297 297 297 298 298 298 299 300 301 303 305 307 307 310 313 313 313 314 315 315 315 315 317 318 315 314 315 313 309 308 311 313 314 313 310 309 310 313 316 313 313 318 317 313 317 320 314 312 313 314 315 319 327 327 321 323 329 322 317 324 328 321 315 314 315 316 316 317 317 316 316 319 320 320 320 320 322 323 322 323 325 320
297 297 297 297 297 297 297 297 298 298 298 299 300 302 303 304 305 305 309 313 313 313 313 313 314 316 316 318 318 315 314 313 314 313 309 309 311 310 309 311 311 311 311 311 311 312 312 308 308 311 313 311 311 312 313 313 318 326 327 322 322 325 323 321 327 328 320 315 315 316 318 322 321 317 313 314 316 319 319 318 317 317 319 322 325 323 316
297 297 297 297 297 297 297 297 298 298 298 299 300 301 301 302 303 303 307 312 313 311 311 311 314 316 318 318 315 313 314 313 315 317 312 310 311 310 310 312 313 312 309 307 307 308 307 307 309 309 310 312 312 312 313 314 314 316 322 324 322 322 324 323 322 323 320 315 315 317 321 325 321 313 310 312 315 317 317 315 313 312 313 315 316 314 310
297 297 297 297 297 298 298 298 298 298 299 299 299 300 300 301 302 303 307 313 313 310 310 311 313 314 315 316 313 311 313 313 313 316 313 310 311 310 311 314 315 311 307 305 305 307 308 309 310 310 311 311 312 312 314 316 314 309 312 321 324 324 324 319 315 317 319 316 316 322 324 320 314 310 310 312 312 313 313 312 310 310 310 309 310 309 307
297 296 297 297 297 298 298 298 298 298 299 299 299 300 300 300 301 302 306 312 313 310 310 312 312 310 311 313 311 309 309 310 312 314 313 311 311 310 311 314 315 310 307 307 308 310 312 313 312 311 312 314 316 316 314 314 315 312 312 316 322 325 324 319 315 315 317 317 319 322 319 312 310 312 312 313 313 313 314 314 312 309 309 309 308 307 305
296 296 297 297 297 298 298 298 299 299 299 300 299 300 300 299 300 303 305 309 311 308 308 310 311 309 308 311 312 311 310 311 312 311 310 310 310 309 308 307 305 305 307 310 313 312 313 315 314 311 312 317 318 315 313 312 313 315 314 313 316 322 323 320 318 316 316 319 318 316 314 313 313 314 311 311 312 312 314 316 313 308 308 307 306 305 304
296 296 296 297 297 298 298 298 299 299 299 300 299 299 300 300 301 302 303 306 309 309 308 307 307 308 308 310 313 312 312 313 312 310 311 312 309 306 305 303 300 303 310 314 317 317 313 313 314 312 312 315 313 311 313 314 313 313 313 311 313 317 320 323 322 315 313 317 317 315 316 318 316 312 308 308 309 309 310 314 314 309 306 306 305 304 304
296 296 296 297 297 298 298 298 299 299 300 300 300 300 300 300 301 301 302 304 307 309 307 304 304 307 308 309 310 312 314 313 312 314 316 314 309 306 306 306 303 307 316 320 319 320 317 313 313 313 312 312 311 310 312 315 317 315 314 314 315 315 316 321 321 315 313 319 321 318 318 316 312 309 307 306 307 307 308 315 317 310 305 304 304 303 303
296 296 296 297 297 297 298 298 299 299 300 300 300 301 301 301 301 301 302 304 306 311 310 305 306 310 312 311 310 311 313 311 310 313 313 310 309 309 309 312 309 309 317 321 319 321 321 315 313 315 311 307 309 310 311 315 321 321 318 319 320 320 320 321 321 318 316 319 320 318 315 312 308 307 308 306 306 306 311 319 318 308 304 304 303 303 303
296 296 296 297 297 297 298 299 299 300 300 300 301 301 301 301 301 300 302 304 306 311 309 302 305 311 310 311 312 309 307 310 312 313 312 310 311 311 310 312 309 305 310 319 321 322 320 314 312 316 314 308 307 309 311 316 318 314 311 312 313 316 317 317 318 318 317 317 318 316 313 310 307 308 307 306 307 310 316 318 312 306 304 304 303 303 304
296 296 296 296 297 297 298 298 299 300 300 300 301 301 300 301 301 300 303 305 305 308 304 299 302 307 304 306 311 307 306 311 314 316 317 313 309 307 307 307 308 307 312 319 321 318 317 313 310 313 317 314 311 310 310 314 313 308 308 311 312 313 314 313 314 314 313 313 315 315 313 308 306 307 305 305 311 316 315 311 306 304 305 304 303 303 303
295 296 296 296 297 297 297 298 298 299 300 301 301 302 301 302 301 300 303 304 303 307 307 302 301 302 302 305 310 309 309 312 314 318 321 315 308 309 309 309 311 311 311 316 315 311 314 316 310 311 317 316 312 311 311 310 308 307 309 312 312 311 313 312 309 307 308 312 314 315 313 305 302 305 307 307 312 312 308 305 305 305 304 303 302 301 300
295 296 296 296 296 296 296 296 296 298 299 300 301 302 302 302 302 302 302 303 303 306 306 302 299 300 302 305 306 307 310 313 313 315 317 312 307 310 314 315 316 314 311 314 313 309 312 317 311 309 313 311 308 310 311 311 309 305 305 308 308 308 311 311 306 304 309 315 313 310 307 302 300 305 307 306 306 305 303 304 305 303 302 301 300 300 299
295 296 296 296 295 295 295 295 295 297 298 299 301 302 302 302 302 303 302 302 302 304 305 304 301 300 301 303 303 304 306 308 309 309 312 310 307 309 315 316 314 311 310 313 315 311 310 312 310 310 312 310 309 309 309 311 312 307 304 307 308 306 306 307 304 303 305 309 307 303 302 301 302 303 303 302 302 302 302 303 303 302 301 300 299 299 298
295 296 296 295 294 294 294 294 295 296 297 299 300 301 301 302 302 303 303 301 303 304 303 302 302 303 303 303 302 303 305 307 307 305 309 313 311 307 310 311 309 308 309 312 317 317 314 311 311 313 313 310 309 310 308 309 311 307 304 305 304 302 303 303 303 302 302 303 303 302 302 302 302 302 301 300 301 301 301 301 301 301 300 299 298 298 297
296 295 295 294 293 294 294 294 295 297 297 298 299 300 301 301 301 303 303 301 302 306 304 302 305 306 303 302 302 304 306 307 308 306 307 311 314 312 309 307 306 309 310 308 307 311 314 310 308 311 312 308 308 312 311 309 307 305 304 304 303 303 303 304 303 304 304 304 302 302 302 302 301 301 301 300 300 300 300 300 299 299 298 298 298 298 298
296 295 294 294 293 294 294 294 296 297 298 298 298 299 300 301 302 303 303 299 301 309 309 305 305 303 301 302 303 303 304 306 307 307 306 307 313 315 310 305 305 307 308 305 305 310 314 310 308 311 311 307 308 310 308 306 306 306 305 305 304 303 303 303 303 303 304 304 302 301 301 301 300 301 301 300 300 300 299 299 298 298 298 298 298 298 298
295 295 293 293 293 294 294 295 296 298 298 299 299 299 300 302 303 304 303 299 301 310 311 306 305 303 302 302 302 302 305 307 306 307 307 305 307 309 305 304 305 305 306 308 310 312 312 309 308 311 309 306 307 308 305 304 306 305 304 304 303 303 303 303 302 303 303 302 301 301 301 301 300 300 300 300 300 299 299 299 298 298 298 298 298 298 298
295 294 293 294 293 294 295 295 297 299 299 299 300 301 303 305 304 305 305 303 302 307 309 306 306 304 301 300 301 302 305 307 306 306 306 305 305 304 303 306 308 307 309 311 310 309 309 308 307 307 306 304 305 305 303 303 304 305 304 302 302 303 303 302 302 303 303 302 301 301 302 301 301 300 300 300 299 299 298 298 298 298 298 298 298 298 298
294 293 293 293 293 294 295 296 298 299 299 300 304 305 306 306 305 306 307 305 304 310 312 308 304 304 302 301 302 303 305 306 306 305 304 303 304 302 302 305 309 311 312 312 309 307 308 307 306 305 305 304 305 304 304 304 304 304 303 301 301 302 302 302 303 304 303 302 301 301 301 300 300 300 300 299 299 299 298 298 298 298 298 298 298 298 298
294 294 293 293 293 294 296 297 299 299 299 302 305 306 305 304 304 306 306 303 303 310 316 312 306 304 304 302 301 302 303 304 305 303 302 301 301 300 300 303 307 309 309 308 308 307 306 305 306 304 302 302 305 305 304 303 303 303 301 300 301 303 303 303 304 304 302 301 301 300 300 300 300 300 300 299 299 299 298 298 298 298 298 298 297 297 298
294 294 293 293 294 295 296 298 299 299 301 303 305 308 310 305 302 304 306 303 301 308 316 314 308 304 302 301 300 301 301 302 303 302 300 300 300 299 299 302 306 307 308 307 307 306 305 305 307 304 300 302 306 305 303 303 303 301 300 300 302 303 303 303 303 302 301 301 300 300 299 300 299 300 300 299 299 299 298 298 298 298 297 297 296 296 296
294 294 293 293 295 295 297 299 299 299 302 303 304 310 314 309 304 304 305 303 302 309 315 313 307 306 306 303 300 300 300 300 301 300 299 300 301 299 298 301 303 303 306 308 307 306 304 304 305 304 302 304 307 306 302 303 303 301 300 300 301 301 302 301 301 302 301 300 299 299 298 299 299 299 298 298 298 298 298 298 298 297 297 296 296 296 296
294 293 293 294 295 296 298 299 299 301 302 303 303 305 308 308 305 304 305 304 302 307 314 312 305 305 308 305 302 301 301 300 302 303 301 301 303 301 300 301 303 303 306 310 308 305 303 302 302 302 301 302 306 306 302 301 303 301 300 300 300 300 300 300 300 300 300 299 300 299 298 298 299 298 297 297 297 297 297 297 297 297 296 295 295 295 294
293 293 293 294 295 298 299 300 301 302 303 303 303 302 303 306 306 303 304 305 301 301 308 313 307 302 304 305 302 302 302 303 305 308 305 301 302 305 305 305 307 306 304 305 305 302 302 302 303 303 302 302 304 305 302 300 300 300 299 299 300 299 300 300 300 300 300 300 300 300 299 299 298 297 297 296 296 296 296 296 295 295 294 294 293 293 293
293 293 294 294 296 298 300 301 304 305 304 303 302 302 303 305 305 304 304 303 302 300 304 311 310 305 304 307 306 302 304 307 308 309 307 300 298 304 309 310 309 307 302 302 303 303 301 303 304 304 304 303 302 302 301 299 299 299 299 299 300 299 300 300 299 299 300 299 299 298 298 297 296 296 297 296 296 295 295 295 294 294 295 295 294 293 293
293 294 294 295 298 300 301 303 304 304 303 302 301 302 303 304 304 305 303 302 305 307 307 308 310 309 306 307 306 302 303 308 306 305 307 303 298 302 310 310 307 304 301 302 305 305 303 303 303 303 302 302 302 302 301 299 298 299 299 299 299 299 300 299 299 298 298 298 298 297 296 297 297 298 298 298 296 294 293 293 293 294 297 299 296 293 293
294 294 294 297 299 300 302 304 304 304 305 304 301 302 304 305 304 304 303 303 306 309 308 306 310 313 310 307 305 302 302 305 303 303 308 308 302 304 312 312 305 302 303 307 308 305 301 302 304 303 302 302 302 301 300 299 299 300 299 300 300 300 300 299 298 297 297 297 298 298 297 298 298 298 298 299 297 293 293 295 296 296 299 301 297 293 294
294 295 297 299 301 302 302 303 303 304 304 303 302 302 303 304 304 304 306 306 305 305 308 310 310 309 307 307 306 304 303 304 304 304 307 307 303 304 310 311 306 306 309 309 305 302 301 303 306 305 302 300 301 300 300 301 301 300 300 300 300 300 299 297 297 298 298 298 298 298 298 299 299 298 299 300 299 297 297 298 298 297 298 298 296 294 294
295 297 299 300 303 306 306 304 302 303 302 301 303 303 302 304 306 307 309 309 305 303 309 312 307 304 306 308 305 304 303 304 305 305 305 304 302 303 307 306 304 306 308 304 299 301 305 306 306 304 301 299 300 300 300 301 300 300 301 301 300 299 298 298 298 299 300 299 300 299 299 300 299 299 300 300 299 298 297 297 295 295 295 295 294 294 294
299 302 303 304 306 308 307 303 301 302 302 302 303 304 303 304 306 306 306 307 306 304 307 309 307 308 312 312 305 301 302 306 309 308 304 304 304 304 305 305 304 306 306 301 299 303 306 304 303 303 301 300 301 301 300 300 300 300 300 298 296 296 296 297 298 299 300 300 300 299 299 300 300 299 300 300 298 296 295 294 294 295 296 295 295 295 295
302 303 305 306 306 304 303 303 302 303 305 304 304 305 305 305 305 305 305 306 305 304 303 305 306 307 310 311 307 303 302 304 310 310 305 303 304 306 304 302 304 306 304 300 301 306 306 304 303 303 301 301 302 302 301 300 301 301 298 295 293 294 295 296 296 297 297 297 297 296 297 297 298 298 298 298 298 298 296 294 295 296 296 296 296 296 296
300 301 302 303 303 301 301 303 302 302 305 306 304 305 305 304 302 304 305 305 305 305 303 304 304 304 306 310 313 310 302 299 305 311 307 302 304 307 304 300 302 305 303 299 302 307 307 303 302 303 303 303 303 302 301 301 301 300 297 293 293 294 295 295 296 296 296 295 295 295 297 297 296 297 296 296 296 297 296 294 294 295 296 296 297 296 296
298 300 300 300 301 300 301 302 302 301 302 304 303 303 304 302 301 303 305 305 306 305 304 305 307 306 304 305 309 309 302 298 302 311 311 303 302 307 305 301 303 305 302 299 303 308 307 304 302 303 305 303 301 301 302 302 301 301 297 293 293 295 294 294 295 295 296 296 295 295 296 297 296 297 298 297 296 296 296 296 296 296 296 296 296 296 295
300 300 299 300 300 300 300 302 302 301 302 304 304 302 303 302 302 302 303 303 304 304 302 302 303 303 302 303 304 304 300 297 301 310 310 302 301 305 306 303 302 301 300 302 305 306 305 305 305 305 305 303 301 301 302 301 300 300 297 293 293 295 294 294 295 294 295 296 296 296 296 297 297 297 298 298 297 296 296 296 297 297 296 296 296 296 296
301 300 302 303 302 300 300 301 301 301 302 303 303 303 303 303 303 304 305 305 304 304 304 306 307 305 303 304 305 302 299 299 302 305 303 301 302 305 304 302 301 299 299 304 306 303 302 304 306 304 303 302 300 300 300 300 300 300 297 294 293 294 294 294 295 294 294 295 295 295 296 296 296 296 296 297 297 297 296 296 296 296 296 296 295 295 296
301 301 304 305 302 300 301 302 301 301 302 303 305 307 307 307 309 311 312 310 308 305 305 308 311 308 304 302 302 303 304 307 307 304 302 303 304 303 300 301 304 303 302 303 304 302 301 304 304 302 300 300 300 299 300 300 298 298 298 296 294 293 293 293 293 293 293 294 294 294 294 294 294 295 295 295 297 298 297 297 296 296 295 295 296 296 296
301 302 304 304 302 301 300 300 301 301 302 304 309 311 311 312 312 310 308 308 310 307 305 306 309 308 304 302 301 303 309 311 307 302 302 305 304 300 297 299 303 305 303 302 304 305 307 307 304 300 299 300 299 298 299 299 296 295 298 299 296 292 292 293 293 293 294 294 294 294 294 294 294 295 295 295 296 297 297 297 297 296 296 296 296 296 296
299 299 302 303 302 299 298 301 305 307 306 307 310 311 309 309 308 304 301 303 307 306 304 304 306 305 303 302 301 302 307 310 304 299 299 303 302 299 299 301 302 303 303 303 306 311 313 309 303 299 299 299 299 297 298 298 297 296 298 299 295 292 292 293 293 293 294 294 294 294 294 294 295 295 295 295 296 296 297 297 297 296 297 297 296 296 296
300 300 301 303 302 301 302 305 306 303 301 303 304 303 302 303 303 302 301 302 304 304 303 305 307 304 303 305 307 304 303 305 303 299 299 302 301 299 301 303 302 302 304 307 311 315 315 308 301 299 298 298 298 298 298 297 297 297 298 297 295 293 292 293 293 293 294 294 294 294 295 295 296 296 296 296 296 296 297 298 297 297 297 297 296 296 296
301 299 299 300 300 302 305 305 302 299 302 303 301 299 301 304 305 304 302 301 303 303 304 307 311 309 304 304 307 306 302 302 303 301 300 303 303 301 303 304 302 302 305 309 314 318 314 304 298 298 299 298 297 298 298 296 296 295 296 295 294 293 293 293 294 294 295 295 295 296 296 296 296 296 296 296 296 296 297 297 297 297 297 296 296 296 296
298 297 299 302 301 300 299 298 299 301 305 303 300 300 303 305 304 302 301 302 305 307 306 308 312 311 305 303 305 305 303 303 303 301 301 304 304 302 301 303 305 308 310 311 313 314 309 300 296 297 298 297 297 298 297 295 294 293 293 294 294 294 294 294 295 295 295 296 297 296 296 296 296 296 296 297 297 297 297 297 297 297 297 296 296 296 296
298 298 300 303 305 304 302 301 303 305 304 303 302 302 304 305 305 303 300 301 307 309 307 307 308 308 306 305 305 302 300 302 302 301 301 303 302 301 301 306 311 315 315 312 308 305 300 297 296 298 298 297 297 297 296 294 294 293 294 294 294 294 294 295 295 295 295 296 296 296 297 297 297 297 297 297 297 297 296 296 296 296 296 296 296 296 296
300 299 299 300 304 306 304 302 304 305 305 306 306 303 301 305 307 303 299 302 307 308 306 308 310 308 305 304 303 301 301 303 303 301 301 302 302 303 309 316 318 316 313 311 307 300 295 295 297 298 297 297 297 296 294 293 293 294 294 294 294 294 294 294 294 295 295 295 295 297 297 297 297 296 296 296 296 296 296 296 297 297 297 297 296 296 297
Wind_Speed
12 11 9 9 11 11 12 12 9 10 11 11 12 7 4 2 1 4 2 14 11 4 1 1 1 2 2 2 2 2 3 4 4 5 4 2 3 2 1 1 1 3 1 2 3 4 3 3 2 3 2 1 1 4 2 2 4 5 2 2 2 2 4 4 1 3 4 5 4 2 2 5 6 3 2 2 2 3 5 5 4 4 3 2 3 2 3
11 10 9 9 10 11 12 10 8 9 9 11 11 5 2 2 2 4 4 12 4 3 3 2 2 3 2 2 2 1 3 5 5 5 4 2 2 2 2 2 1 3 2 3 3 3 3 3 2 2 2 1 2 5 3 3 3 2 3 4 3 1 2 4 3 3 4 5 5 4 4 4 3 2 3 2 3 5 4 3 3 3 3 4 5 2 4
10 9 8 9 9 10 11 9 7 8 8 9 9 4 2 2 1 2 2 7 3 2 3 3 2 3 1 1 1 1 2 5 7 7 5 3 2 1 2 2 2 3 4 4 4 3 4 2 1 2 2 1 3 6 6 4 4 3 2 4 4 3 2 4 5 4 3 1 1 2 1 2 2 2 5 4 3 4 4 3 4 3 3 3 5 3 3
10 8 7 9 9 10 11 8 7 8 7 8 8 5 3 1 1 1 1 3 2 3 2 1 2 2 1 1 1 2 3 6 5 6 5 4 2 1 2 2 3 5 5 6 6 7 6 4 2 2 2 1 1 3 4 5 5 6 7 6 4 4 3 3 5 5 5 5 4 3 2 3 2 3 5 5 3 2 4 5 3 4 3 1 2 4 6
9 7 7 8 9 11 10 7 7 7 6 7 7 4 3 1 1 2 2 2 3 3 3 2 1 2 2 1 1 3 4 5 3 3 2 1 0 1 3 4 3 3 3 5 4 5 6 6 4 3 1 0 2 3 3 5 6 5 5 4 3 5 3 3 5 5 2 2 1 3 5 5 3 3 5 6 5 4 5 5 3 6 6 1 4 6 10
9 7 7 8 9 10 9 7 7 7 6 6 5 2 3 1 1 1 1 1 3 3 4 4 3 2 1 1 1 1 3 4 3 2 2 3 3 3 3 6 4 2 3 5 2 2 5 5 3 2 2 1 3 5 4 5 7 4 3 4 3 6 3 2 5 6 7 6 5 5 7 7 6 6 5 6 6 5 5 4 3 5 5 4 7 10 9
8 6 7 8 9 9 8 7 6 6 6 6 4 2 2 1 0 2 3 2 2 3 3 4 5 3 2 1 1 1 3 5 3 1 2 4 5 3 3 5 6 3 4 6 3 1 3 2 1 1 2 2 2 4 3 4 6 6 4 4 3 5 2 1 4 5 8 9 7 5 7 7 6 7 7 6 6 7 7 4 3 3 3 4 9 10 4
7 6 7 8 8 8 7 6 6 6 7 6 4 3 2 1 1 1 2 2 1 1 0 3 4 2 3 3 2 1 3 5 3 2 2 1 3 4 5 2 3 4 5 7 4 2 5 5 3 3 3 3 2 2 1 1 5 6 4 3 3 4 2 1 3 5 6 8 8 7 7 7 7 7 7 6 6 6 6 4 3 4 4 5 9 8 3
6 7 8 7 7 7 7 6 6 6 6 5 3 3 3 3 4 3 2 2 1 1 0 3 4 1 2 4 2 2 4 5 1 3 2 3 2 4 8 6 4 6 8 9 5 2 5 8 6 5 6 4 2 1 2 2 2 4 3 2 4 4 3 1 4 4 3 5 6 6 7 8 7 6 6 7 5 4 3 3 3 2 5 9 8 4 2
5 6 6 7 7 7 7 6 6 6 6 4 3 2 4 5 5 3 2 2 1 1 1 2 3 2 3 4 3 3 5 5 3 4 4 4 4 3 8 9 6 6 8 7 3 5 5 8 6 5 7 7 6 4 5 6 4 2 2 2 3 3 4 2 3 4 1 2 2 3 4 5 2 2 3 5 3 2 2 3 5 3 3 7 4 4 5
5 5 5 7 7 6 5 5 5 5 5 5 3 3 5 5 3 3 1 1 2 1 2 2 2 2 4 6 5 4 4 2 2 4 1 3 4 3 5 9 8 5 5 5 3 6 8 8 7 8 10 11 10 8 9 11 7 3 3 3 2 3 5 3 2 4 3 1 2 4 3 2 2 2 2 3 2 2 4 3 5 5 3 4 4 5 9
5 5 5 6 6 5 4 4 5 5 6 7 5 5 6 6 4 3 1 0 2 1 1 3 4 3 3 4 2 1 1 1 1 4 5 2 1 2 4 8 7 3 4 5 6 7 8 6 7 9 9 9 10 11 13 13 9 5 3 4 4 4 5 3 2 3 3 1 3 3 1 3 3 2 3 3 2 5 7 6 6 5 6 8 9 8 8
4 5 5 6 6 6 5 4 5 5 5 6 7 7 8 7 4 3 2 0 2 2 2 4 4 2 2 3 3 1 0 2 3 4 6 4 2 1 2 4 4 3 5 8 7 7 6 5 5 6 6 6 7 10 12 11 9 8 7 4 5 5 5 3 2 2 2 2 2 2 2 3 2 2 3 3 2 2 4 5 5 5 4 7 9 7 7
4 5 6 6 7 6 6 5 6 6 5 6 8 9 9 6 3 2 2 1 2 2 1 2 4 2 1 3 3 2 3 4 5 5 4 3 3 3 2 1 1 1 5 7 6 5 4 3 4 4 4 5 5 5 5 5 6 8 8 6 3 5 5 4 2 1 2 3 2 1 1 2 2 0 1 0 1 1 1 1 2 3 2 5 8 9 9
5 6 6 7 7 7 6 6 6 6 6 6 8 9 9 8 5 3 2 2 3 2 1 1 2 1 2 1 3 4 4 4 4 3 3 2 3 2 2 1 1 3 5 6 4 3 3 3 3 2 1 1 1 1 2 3 4 4 5 4 4 4 4 4 4 1 2 4 2 1 0 2 3 2 1 1 1 2 1 0 0 2 5 6 8 10 9
5 7 7 7 8 7 7 7 7 6 6 5 7 9 9 8 7 5 3 2 1 2 2 3 3 3 3 2 3 5 4 2 2 2 4 5 4 2 2 1 2 4 6 5 3 4 4 3 3 3 2 3 3 1 1 2 3 5 5 6 8 7 4 4 6 3 2 4 3 2 2 3 3 3 2 1 0 2 1 1 1 3 7 8 9 10 9
6 7 8 9 9 9 8 8 7 7 6 5 7 8 8 7 6 6 4 2 1 2 3 2 2 3 3 2 2 3 3 2 3 3 2 1 3 4 3 4 4 4 6 5 3 4 5 3 2 3 1 2 2 2 1 2 1 4 6 7 8 7 5 4 5 3 3 4 2 2 2 2 2 3 2 1 1 0 1 1 3 4 8 8 9 10 9
7 7 8 10 10 9 9 9 8 8 7 5 7 9 9 9 7 7 3 2 2 3 4 2 3 3 2 4 3 1 2 2 3 3 2 1 1 2 3 3 3 3 4 4 3 3 4 3 2 3 1 2 1 2 2 2 2 1 2 3 4 4 4 2 4 3 3 3 2 1 2 2 2 2 2 2 1 1 2 2 3 5 8 7 8 9 8
7 7 9 11 11 10 10 9 9 9 7 5 6 8 8 8 8 9 5 2 2 2 6 4 2 2 1 3 3 1 1 2 3 4 3 2 1 1 1 1 1 1 3 4 3 3 3 1 1 3 2 2 1 2 1 1 2 1 1 3 2 2 2 2 2 3 3 3 2 0 3 2 1 2 3 2 2 1 2 2 2 6 8 8 8 8 7
8 8 9 11 11 11 10 9 9 9 7 5 5 7 8 7 9 11 9 2 0 3 6 4 4 2 1 3 3 2 2 3 3 4 4 2 1 2 3 1 1 1 2 2 2 1 3 2 1 1 2 1 1 2 2 1 0 1 2 2 1 2 2 1 1 2 2 3 3 0 2 1 1 1 1 1 1 1 1 2 4 7 8 8 7 7 7
8 9 10 11 11 10 9 8 8 7 6 4 4 7 8 6 5 10 14 7 1 1 3 6 6 4 3 3 3 3 5 4 3 4 4 2 1 3 3 4 3 1 1 2 3 1 1 2 1 1 2 1 0 2 3 1 2 2 1 3 1 0 2 2 2 2 2 3 3 2 2 2 1 1 1 1 1 0 1 2 5 6 6 6 6 5 7
9 10 11 11 11 10 8 8 7 6 6 5 4 6 6 3 5 3 12 12 5 4 7 11 11 6 4 6 7 7 6 3 3 5 5 2 2 1 4 3 2 2 2 3 4 1 1 2 2 2 2 2 1 2 3 3 1 2 2 2 0 0 2 3 2 2 3 2 2 2 1 0 1 1 2 2 3 3 3 4 6 6 5 5 6 7 8
10 11 12 11 11 10 8 8 7 6 6 5 5 6 8 7 5 2 7 9 5 7 10 10 6 4 6 9 10 10 9 8 6 5 5 5 2 2 2 3 2 1 1 2 4 3 2 3 3 2 2 2 3 3 3 2 2 2 1 2 1 1 3 3 3 4 4 3 3 2 2 3 4 5 4 4 4 4 4 6 6 5 5 6 7 9 9
10 12 12 11 11 10 9 8 8 7 6 6 6 8 10 10 6 4 8 4 1 1 3 4 4 3 4 5 9 11 10 9 8 6 4 4 4 1 0 1 1 1 0 1 2 3 3 2 2 3 2 1 2 3 2 1 2 2 2 2 0 1 1 3 3 3 3 2 3 2 4 5 6 6 6 7 6 5 5 6 7 7 8 8 9 10 9
12 12 12 11 11 10 10 9 8 7 7 8 9 9 10 11 7 10 9 1 1 3 3 3 4 6 4 2 7 11 10 11 12 12 11 8 6 6 4 1 2 3 2 2 2 4 4 2 2 3 3 2 2 2 1 1 3 3 3 3 1 1 2 3 3 2 2 3 4 5 7 7 6 6 6 6 7 7 7 8 9 10 10 10 11 11 10
13 13 12 11 11 11 10 9 8 9 8 9 11 12 12 10 6 12 11 2 1 3 4 1 4 9 12 10 7 7 9 17 19 19 19 18 15 15 11 5 6 6 4 3 4 4 4 3 3 3 2 1 2 2 1 1 3 3 3 1 2 1 2 3 4 5 5 5 6 7 7 7 6 7 7 6 7 9 10 10 11 11 11 11 12 12 12
13 13 11 11 11 11 10 10 9 10 10 11 14 14 11 7 6 13 12 3 2 3 3 0 3 6 10 11 9 6 12 21 23 22 22 20 20 20 16 8 5 5 4 4 4 3 4 4 3 3 1 1 3 3 2 2 3 4 3 2 1 2 3 3 5 5 3 3 5 5 5 4 5 7 9 9 9 10 11 11 11 11 11 11 11 12 13
13 12 11 11 11 10 10 10 9 10 12 13 11 5 3 3 3 7 11 10 5 3 3 2 2 3 4 8 11 10 16 22 25 24 22 20 21 21 15 8 5 4 4 4 4 3 4 4 2 1 1 2 3 3 1 2 3 3 2 2 2 2 4 4 4 3 3 5 6 4 5 6 6 8 10 8 8 10 11 11 10 10 11 11 10 10 9
13 12 11 11 11 10 10 10 10 11 13 10 4 1 3 2 3 3 3 9 8 4 4 2 2 2 1 4 9 11 17 23 26 25 23 21 20 17 12 7 5 3 3 4 4 3 3 3 2 1 2 1 2 2 2 2 3 2 2 4 3 1 3 4 6 6 6 6 6 5 7 8 9 9 9 7 9 11 10 10 10 10 11 13 11 9 9
13 12 11 11 10 9 10 9 10 12 11 5 0 1 2 1 3 5 2 5 8 5 4 4 2 2 1 1 5 9 14 22 27 24 20 16 12 10 8 7 5 4 4 5 4 3 2 2 2 2 3 2 3 3 2 2 2 2 3 4 3 4 4 4 6 8 7 7 8 9 10 10 9 9 8 8 11 12 10 10 12 12 13 14 12 11 11
13 12 12 10 9 9 9 8 10 11 8 3 1 1 2 2 1 3 4 9 10 7 5 4 2 2 2 2 3 5 9 15 18 15 12 10 8 9 11 9 5 4 5 4 2 2 2 2 3 3 4 4 4 3 2 2 3 2 3 4 4 6 6 6 8 9 9 10 11 11 11 9 8 8 7 8 10 11 10 12 15 14 14 13 11 10 10
13 12 11 10 9 9 8 8 8 7 4 1 0 2 2 1 1 4 9 13 11 8 5 4 2 1 2 2 3 4 6 9 10 7 6 6 6 7 10 8 3 3 4 4 3 2 1 1 2 3 3 3 4 3 2 3 3 2 4 5 5 6 8 9 10 10 10 10 10 11 10 7 5 6 7 8 10 10 10 11 14 14 13 11 10 9 9
12 12 10 9 9 8 7 7 6 2 2 3 4 5 5 4 3 6 11 13 10 6 4 3 3 1 1 1 3 6 6 5 5 4 4 5 4 3 5 5 3 4 6 4 2 1 1 1 3 3 3 3 4 4 3 3 3 5 6 6 6 7 9 10 10 10 7 6 5 6 8 7 7 9 11 11 11 11 11 12 14 13 11 10 9 9 10
12 11 10 9 8 7 6 5 2 2 3 4 4 6 8 5 5 7 11 12 8 5 4 4 3 1 2 1 2 5 5 3 2 3 3 4 4 2 3 4 4 4 5 3 2 2 2 2 3 2 3 3 4 4 3 3 4 7 7 6 6 8 10 10 9 7 6 6 6 6 9 11 11 11 11 10 10 11 12 13 13 11 8 6 6 8 11
11 10 9 8 7 5 4 4 2 2 2 3 4 6 8 7 7 8 10 8 5 3 2 2 3 2 2 3 2 3 4 4 2 1 2 2 4 3 3 3 4 3 2 2 2 3 3 2 2 2 3 3 3 3 2 3 5 7 7 7 6 8 9 8 6 5 6 7 7 7 9 12 10 8 7 7 7 9 9 9 10 10 7 5 5 8 10
10 9 7 5 5 3 2 3 4 3 2 2 3 5 7 9 10 11 11 9 7 4 2 1 3 3 3 3 1 3 3 3 2 2 1 2 3 3 3 4 4 2 1 3 4 3 3 1 2 3 3 3 3 2 4 6 7 7 8 7 5 6 7 7 7 8 8 9 9 8 9 9 7 6 6 6 6 8 8 6 7 9 7 5 5 7 8
8 6 4 3 2 2 2 3 4 4 3 2 2 4 6 6 7 7 8 8 7 4 3 3 2 2 3 3 2 2 2 2 1 3 3 2 1 2 2 4 3 1 3 4 3 2 3 2 3 4 3 2 3 3 5 6 7 7 8 7 5 6 7 6 7 10 11 10 9 8 7 8 6 5 6 5 5 6 7 6 5 7 7 6 6 6 7
4 3 2 1 1 2 1 2 3 3 2 1 2 3 4 3 3 3 3 4 4 4 3 4 3 1 2 3 0 1 1 2 1 3 2 1 1 2 2 2 1 1 2 3 2 1 3 4 3 4 2 3 1 2 3 4 5 6 6 6 5 6 7 6 8 10 10 8 7 6 6 7 6 4 5 6 4 4 6 7 7 7 8 8 8 8 9
2 2 1 1 1 1 1 2 2 3 3 2 3 2 2 3 3 1 2 2 2 2 2 3 3 2 3 4 1 1 1 3 3 3 1 0 1 1 1 1 1 2 3 1 2 2 4 3 3 3 2 2 1 2 2 3 5 5 5 6 7 8 8 8 9 10 10 8 8 8 8 8 7 5 4 4 4 4 5 7 7 7 7 8 9 9 9
2 2 1 2 1 0 0 1 2 3 2 2 3 2 1 2 1 1 0 2 2 1 0 2 2 2 3 5 3 0 1 3 3 3 2 1 1 2 2 1 1 2 3 1 2 2 4 2 2 2 2 3 4 2 3 4 5 4 5 7 10 12 12 11 11 12 12 11 11 12 12 12 12 9 7 6 6 4 4 6 7 7 7 8 9 9 9
3 2 1 1 1 1 1 3 4 3 2 2 2 2 1 1 1 0 2 3 0 2 1 2 3 1 1 3 4 2 1 1 2 4 3 1 1 3 3 1 0 3 2 1 1 3 4 3 2 1 3 5 4 3 4 4 4 4 6 8 10 12 12 11 10 11 12 11 9 10 12 14 14 13 12 12 10 8 8 8 9 8 9 11 12 11 10
4 1 1 1 1 2 3 4 4 3 1 1 1 1 0 1 0 0 1 1 2 1 0 2 3 3 2 2 3 3 1 0 1 3 3 1 0 3 3 1 2 3 1 3 0 4 4 2 1 2 5 5 4 4 5 5 5 5 6 9 11 12 12 12 10 10 13 15 13 12 12 14 14 15 15 14 12 11 10 10 10 10 11 13 14 13 13
2 2 1 0 2 3 3 2 1 1 1 1 1 1 1 1 1 1 0 1 1 1 1 1 1 2 1 1 2 2 1 0 1 2 3 1 0 2 3 2 2 2 1 0 3 3 2 2 3 5 5 5 5 5 6 6 5 5 7 9 12 14 14 14 12 10 11 15 17 17 16 15 15 15 15 15 13 11 10 10 12 13 14 14 15 15 15
2 2 1 1 2 2 1 0 0 1 1 0 1 2 2 1 1 1 1 1 1 1 2 2 3 3 2 1 1 2 1 1 2 2 2 1 1 3 3 1 1 1 0 2 3 1 2 3 4 5 4 5 5 6 6 6 5 5 5 6 9 12 13 13 13 11 9 11 14 16 16 15 14 14 14 15 16 14 12 11 13 15 16 15 15 16 15
1 1 2 2 2 1 1 1 1 0 2 2 2 3 4 3 3 3 3 2 2 3 3 3 5 5 2 1 1 1 0 1 2 2 1 1 3 2 1 1 0 1 2 2 1 0 2 3 3 4 5 6 6 6 6 6 6 7 7 6 7 10 12 12 12 12 11 12 14 15 15 15 15 15 15 16 17 17 16 16 17 17 17 15 15 15 15
1 0 3 3 0 1 1 1 0 0 2 2 3 4 5 5 5 5 4 2 3 4 4 4 5 6 2 0 0 1 1 2 3 1 1 3 3 0 1 1 2 3 2 1 1 2 4 5 5 5 7 8 8 7 6 6 6 7 8 7 6 9 12 14 14 13 14 16 17 17 17 17 18 17 16 16 16 18 19 20 21 20 18 16 15 15 15
1 0 3 3 0 0 1 1 2 2 3 3 4 4 5 4 3 2 2 2 4 5 4 3 4 4 2 1 1 1 2 2 2 1 1 2 2 0 1 2 1 1 2 2 4 5 4 4 4 6 7 8 8 7 6 6 6 7 8 8 8 9 12 14 15 15 16 17 18 18 17 17 18 18 17 16 16 17 19 20 21 20 18 16 15 15 14
1 0 2 2 1 2 2 2 2 2 1 2 2 3 2 3 3 2 1 2 4 6 5 4 4 3 2 2 2 2 1 2 2 1 0 2 2 1 2 2 1 2 2 4 5 5 4 4 6 7 7 8 8 8 7 7 7 8 8 9 9 10 13 14 15 17 19 19 18 18 18 18 18 18 18 17 17 17 18 20 20 19 17 15 14 14 13
1 1 1 1 1 2 2 2 2 2 2 2 0 1 1 3 3 3 2 2 4 4 3 4 5 4 1 1 2 2 1 1 1 1 2 2 2 1 1 1 1 3 3 4 4 4 4 5 6 7 8 8 8 8 8 7 8 8 10 12 14 15 16 17 18 20 21 21 20 20 19 19 18 17 17 17 17 17 18 19 19 19 17 15 13 13 13
1 0 1 2 2 1 1 1 2 1 3 2 1 2 2 4 3 2 2 3 4 3 3 3 4 3 1 1 3 2 1 1 2 2 1 0 2 2 2 1 3 4 4 4 4 4 4 5 7 8 8 9 9 8 8 8 8 10 13 17 19 20 20 21 21 22 22 22 22 22 20 18 18 18 18 18 19 18 18 18 19 19 17 16 14 12 13
1 0 1 2 3 3 3 3 4 3 4 3 4 4 3 4 4 4 4 5 5 4 4 2 2 3 3 2 1 1 1 0 2 2 1 2 2 3 2 3 5 5 5 5 4 4 4 5 7 8 9 9 8 8 9 11 12 13 16 19 21 21 21 22 23 23 22 21 22 22 21 20 20 20 19 18 18 17 15 15 17 17 18 17 16 13 12
1 1 1 1 2 3 3 3 2 3 4 4 4 4 4 4 4 5 5 6 6 5 3 2 2 4 3 1 1 1 1 1 2 1 1 2 2 4 5 5 5 4 4 4 3 3 4 6 7 9 10 10 10 10 12 14 15 16 18 20 21 21 20 21 22 22 20 19 21 23 23 22 19 17 16 16 16 15 14 14 15 15 16 17 17 15 13
Wind_Direction
270 274 275 288 305 309 303 301 314 322 314 324 337 327 292 262 293 359 162 168 154 83 55 241 295 226 236 273 256 243 266 276 294 305 304 258 243 274 301 249 96 75 93 118 102 100 82 47 82 124 98 98 251 300 294 149 108 93 133 188 153 110 90 87 335 305 307 299 305 331 45 82 79 47 36 83 125 133 139 165 172 130 144 153 95 100 255
266 268 274 295 308 304 301 304 314 314 311 327 333 319 299 290 299 3 149 171 172 15 154 181 249 227 274 311 277 262 258 260 269 278 291 300 289 322 335 305 61 69 53 85 104 125 104 62 32 102 103 70 351 349 6 114 104 82 176 172 152 157 123 105 80 11 346 346 348 343 4 44 73 42 354 358 104 104 116 121 83 108 177 154 126 184 243
259 262 278 299 304 300 300 303 312 312 302 315 325 308 292 287 237 8 145 180 253 313 172 170 185 193 252 274 273 326 264 256 247 245 262 277 272 313 331 316 28 54 51 65 57 49 89 102 342 84 78 5 356 359 5 50 84 80 114 116 114 126 122 115 120 135 164 177 269 254 268 27 51 52 8 6 66 99 129 115 85 130 184 126 129 185 214
251 260 284 297 297 297 299 300 314 312 290 305 322 303 279 292 139 31 94 180 260 283 230 204 158 167 175 229 268 186 237 284 254 217 242 261 248 340 352 341 30 43 47 61 42 26 55 88 94 88 61 3 328 340 3 41 63 73 71 62 82 105 76 82 118 136 174 187 211 226 128 87 63 17 8 4 354 18 100 105 129 169 145 83 204 182 156
243 262 285 292 295 297 297 301 311 302 287 309 322 290 258 310 165 164 149 182 237 264 269 255 195 188 168 164 275 204 234 298 290 199 222 246 186 42 16 12 44 65 67 78 54 17 43 64 65 63 54 155 298 328 35 41 17 38 62 26 60 99 65 54 86 69 48 135 75 35 72 86 79 35 8 354 345 14 85 110 168 151 126 207 245 179 155
239 264 284 288 297 298 296 303 303 291 293 314 322 278 229 255 286 250 261 236 203 218 243 214 194 219 164 150 285 254 263 282 265 243 285 349 25 78 36 5 22 107 112 104 90 19 46 44 29 35 32 35 350 350 22 25 5 25 44 3 71 108 71 44 89 61 37 38 32 49 84 86 67 57 34 8 7 39 91 126 173 137 138 199 194 167 156
239 263 282 288 295 295 296 302 294 283 295 303 299 275 245 214 309 280 269 262 204 201 218 181 173 200 217 217 261 244 263 262 257 285 5 3 4 75 82 347 345 24 83 103 110 138 113 72 328 156 47 38 48 27 18 9 16 45 46 12 66 103 70 60 102 74 39 28 21 42 85 94 68 48 39 35 42 60 85 116 155 114 113 161 151 140 116
242 266 279 284 290 294 297 298 289 288 301 299 268 244 237 202 356 296 267 275 247 204 179 132 145 197 220 224 226 191 248 261 278 0 73 94 345 50 93 50 2 45 73 85 82 198 162 131 148 166 113 63 63 84 147 324 14 33 41 0 23 77 111 149 86 74 28 19 36 54 76 94 81 48 27 29 43 49 60 84 96 74 68 87 112 118 92
261 279 282 286 292 296 296 289 284 291 304 300 257 234 254 279 291 293 282 286 260 190 102 117 129 183 214 211 208 195 248 251 169 34 26 136 134 111 128 126 66 55 65 73 83 195 140 110 124 151 130 110 94 90 131 135 29 24 33 3 5 65 118 78 65 84 11 9 44 59 72 84 76 50 17 5 18 42 44 45 41 79 123 113 109 133 161
285 291 293 299 299 295 294 286 282 293 303 295 264 276 311 305 299 294 269 278 289 175 139 122 145 196 203 205 199 201 244 253 120 76 6 24 61 109 140 126 85 67 74 80 141 189 126 103 112 117 102 90 82 79 76 74 74 80 90 49 14 79 122 116 91 101 60 349 2 10 49 72 47 358 352 336 340 59 61 27 10 2 134 134 144 169 140
293 298 302 307 303 295 292 285 281 286 287 283 281 305 323 332 330 318 302 284 294 213 149 178 201 188 187 196 205 214 236 266 122 129 97 12 16 28 105 106 93 91 94 93 152 145 114 102 98 88 82 77 72 69 64 58 52 66 116 93 43 76 100 108 100 100 117 237 325 14 50 142 243 277 298 308 317 89 88 54 20 16 69 99 92 110 116
302 313 313 314 314 310 303 290 283 281 276 282 286 282 305 336 340 302 297 191 272 270 183 218 217 215 216 188 168 247 224 231 173 142 132 114 22 8 60 92 100 117 115 106 114 112 97 76 66 65 62 67 68 60 54 46 29 19 65 105 109 91 87 86 55 87 119 147 32 55 180 228 254 293 310 334 34 99 101 81 48 50 89 98 91 96 108
317 325 324 322 322 322 320 304 290 288 278 279 277 268 290 327 339 284 290 305 252 245 239 257 259 262 240 153 117 73 63 44 32 80 101 103 91 11 14 94 116 145 126 107 91 83 73 47 49 50 27 26 42 45 41 34 23 17 20 47 106 116 113 106 67 70 118 102 76 130 235 273 293 315 323 347 20 67 96 80 46 39 82 113 111 107 106
336 334 328 322 322 323 319 308 298 294 279 268 271 272 281 295 289 283 322 339 280 264 220 306 333 357 125 135 114 74 27 20 30 48 58 77 83 46 358 39 60 122 119 99 63 57 80 68 48 33 4 8 22 23 18 17 27 31 18 9 68 113 121 111 73 58 132 117 99 121 300 281 237 254 336 1 71 17 105 102 43 40 82 127 127 123 121
345 338 327 321 326 326 317 312 304 296 287 273 269 271 273 270 261 278 321 316 298 309 166 226 304 35 100 107 106 91 49 23 42 32 349 6 66 34 320 344 33 72 89 80 58 60 84 100 93 75 11 37 83 344 344 352 358 22 30 20 39 75 115 138 124 93 103 105 103 108 252 246 202 158 172 167 161 254 240 145 19 97 110 127 134 131 131
344 338 331 329 332 328 320 318 311 302 298 281 268 269 270 267 256 252 272 286 304 341 303 246 221 153 110 67 86 111 108 91 92 47 358 2 6 328 292 341 49 79 74 66 73 75 67 94 131 136 180 191 170 170 18 23 335 333 359 29 44 48 54 97 103 98 116 116 130 180 202 232 203 171 191 173 28 263 259 5 270 160 134 135 135 131 132
339 334 332 335 335 330 325 322 315 312 305 283 272 274 274 271 250 227 235 273 259 274 283 239 141 97 86 70 42 68 102 123 123 102 73 350 323 320 329 353 12 57 75 69 50 54 69 94 107 98 176 224 148 136 150 96 42 324 336 11 34 33 19 52 96 134 147 121 131 215 213 242 208 181 215 275 314 240 123 270 254 172 142 141 138 135 138
332 330 331 334 333 330 328 325 319 317 310 288 278 271 264 261 240 207 210 282 272 284 289 239 138 88 103 133 131 124 124 112 101 93 69 349 329 334 332 356 16 35 70 83 78 69 80 93 113 120 149 291 63 136 180 122 109 282 325 32 37 23 13 54 117 129 119 115 128 244 269 260 214 207 261 280 255 156 156 214 223 149 137 138 134 132 132
326 325 327 330 331 331 330 327 324 321 315 304 290 276 264 255 228 199 194 246 228 272 303 307 96 91 137 125 94 74 98 88 103 114 88 34 312 319 13 53 70 18 44 74 90 100 97 96 203 134 118 315 326 115 123 127 140 176 122 99 99 93 44 26 86 111 119 124 116 294 277 256 193 232 267 245 198 187 180 189 149 133 133 129 123 120 111
321 321 323 325 328 330 330 329 330 327 324 320 299 285 285 280 245 215 201 191 12 271 290 331 43 47 48 91 81 85 88 58 65 113 126 154 210 73 57 29 285 20 49 81 97 101 119 145 231 124 115 222 228 114 102 45 1 190 162 141 157 151 117 42 95 131 116 94 89 130 245 225 121 208 224 197 192 205 177 119 107 118 122 116 112 112 112
318 316 319 322 325 329 331 333 338 337 331 330 309 295 298 309 283 234 218 213 16 330 306 342 351 343 12 59 75 101 123 141 159 148 145 161 49 91 138 204 221 143 124 140 136 147 154 152 180 121 123 142 138 134 140 101 356 305 171 128 116 162 123 149 194 171 132 140 165 207 236 245 255 213 166 116 90 129 149 118 111 113 115 111 106 107 116
318 316 318 320 324 328 330 332 341 344 332 324 310 292 284 314 0 276 221 217 231 259 279 305 315 323 36 50 41 46 65 106 144 132 129 121 13 74 148 160 165 181 181 128 117 143 184 141 144 144 134 114 90 116 122 119 158 291 347 64 45 286 121 134 151 133 125 152 191 218 248 344 78 91 79 63 69 76 86 101 108 112 117 118 114 112 115
320 317 318 319 323 326 326 330 336 338 335 329 306 281 269 281 336 4 197 211 245 265 271 289 314 9 39 37 37 42 48 54 57 67 100 110 75 27 127 137 139 168 144 118 140 154 146 149 156 138 132 134 115 102 72 75 170 210 26 56 125 146 113 92 103 134 125 78 60 85 88 77 75 78 76 68 67 74 90 96 97 98 103 111 117 120 119
322 317 317 319 322 321 320 326 331 332 333 328 309 287 276 282 288 179 168 184 286 279 298 329 17 16 335 353 27 36 41 51 56 46 54 109 132 114 254 197 159 113 155 209 166 130 112 131 130 99 111 140 118 115 100 77 158 162 110 94 130 216 128 83 95 144 146 79 70 91 94 94 93 89 86 81 73 69 81 94 100 101 102 106 112 114 113
321 317 317 318 318 316 317 322 326 327 326 323 315 296 280 284 263 194 183 234 38 126 79 12 359 5 10 38 28 26 40 65 75 70 62 73 114 135 151 166 77 99 165 191 102 82 83 94 94 94 117 136 106 111 138 152 157 145 115 117 180 208 142 102 89 98 96 103 120 108 91 91 93 92 94 94 91 89 89 95 101 101 100 103 106 108 109
320 318 318 317 314 312 315 319 321 323 321 318 314 297 281 287 258 199 199 257 13 113 88 63 320 8 40 55 22 13 73 85 80 78 76 79 94 111 122 113 67 75 101 94 76 88 95 92 85 86 102 123 109 113 141 147 129 104 89 149 215 154 112 111 111 105 95 106 126 119 98 87 91 100 106 106 105 104 101 100 103 103 102 101 100 99 101
321 319 317 314 312 310 312 316 322 325 320 311 306 295 276 266 227 206 210 224 54 73 69 164 284 353 40 48 25 41 98 93 86 84 84 85 91 94 95 91 72 70 67 52 54 75 81 75 66 69 92 112 86 89 109 102 92 83 66 7 334 80 107 124 126 128 135 146 150 140 112 103 115 116 113 110 111 111 107 105 106 107 108 108 104 99 98
321 319 315 311 311 308 309 316 323 326 322 315 308 294 219 182 182 216 233 240 227 149 125 168 276 338 35 34 31 63 96 96 94 91 82 77 79 77 73 70 70 67 58 60 65 60 63 76 84 61 82 109 80 63 56 63 65 66 37 336 311 162 160 156 133 123 135 143 146 133 104 112 124 117 109 109 111 109 108 109 109 110 112 112 110 109 105
319 316 312 310 310 306 308 319 326 327 328 324 313 173 167 154 69 34 259 226 204 149 103 83 9 3 340 3 25 58 86 93 93 87 75 67 65 62 59 62 66 69 83 85 83 76 67 84 120 48 10 82 109 87 47 52 57 43 354 316 297 158 146 140 121 111 109 115 117 106 102 112 118 112 107 107 110 109 106 104 105 105 105 105 105 109 114
319 317 311 307 308 305 307 318 327 330 333 334 299 35 17 63 49 20 18 168 157 125 91 93 70 11 300 347 27 46 73 85 84 75 65 61 54 46 53 64 56 48 66 67 67 88 75 28 21 13 357 33 103 106 79 89 98 53 1 339 4 70 74 80 100 106 108 108 104 99 100 106 107 102 94 91 102 109 111 109 110 109 109 111 112 112 117
319 315 309 304 302 302 307 318 328 334 336 319 279 23 68 106 45 28 98 123 121 105 87 96 102 353 353 23 35 39 62 78 78 68 56 55 50 42 50 58 46 33 59 70 56 65 69 15 16 13 355 23 77 100 103 105 105 55 20 19 47 77 82 79 84 92 102 108 105 96 94 99 101 98 91 88 96 105 109 112 116 116 115 115 115 117 124
317 312 307 301 297 297 305 316 324 333 341 315 335 72 108 157 20 92 115 115 109 102 93 86 81 48 2 332 340 9 46 68 70 58 36 31 31 31 39 49 48 33 62 87 76 34 27 28 48 38 0 16 68 88 66 62 81 84 75 72 76 88 93 93 94 97 103 109 108 104 103 104 99 102 110 108 103 103 105 108 114 118 117 112 107 112 125
316 309 302 295 291 294 305 317 321 337 81 111 97 64 53 62 91 112 114 109 101 98 101 101 97 75 294 280 342 2 23 48 46 34 24 14 11 24 26 25 27 31 38 54 66 23 17 63 61 46 1 10 70 90 57 37 69 94 94 91 94 97 97 99 103 104 99 90 90 104 117 120 114 114 117 114 110 112 113 113 115 117 115 110 105 108 117
313 307 297 286 286 292 306 323 335 144 138 121 94 50 42 71 122 124 116 110 94 67 60 82 99 44 338 12 9 356 15 61 61 40 37 7 1 40 35 4 14 37 32 28 51 47 26 26 46 35 349 355 52 79 64 51 84 97 95 92 99 105 103 100 98 97 93 83 73 83 105 113 114 114 110 105 110 119 120 120 121 117 106 99 102 110 116
309 299 285 276 283 293 311 343 29 123 131 96 67 43 52 85 109 113 117 115 87 51 24 46 90 105 34 43 35 343 10 57 66 46 75 19 4 45 82 36 25 31 12 19 61 49 17 16 62 32 341 351 32 60 104 121 113 107 103 102 107 111 110 107 103 95 97 99 96 98 107 111 113 115 110 106 114 118 113 113 116 114 105 97 100 109 116
299 288 276 268 278 292 320 9 33 50 47 38 36 44 72 95 96 94 101 98 80 94 150 53 69 119 120 98 144 304 1 47 22 344 39 57 18 28 72 67 51 26 0 43 56 29 352 14 67 29 1 29 61 102 158 141 126 120 121 123 122 110 106 115 121 111 99 98 102 107 110 108 107 110 110 111 118 116 108 100 101 106 108 107 103 108 116
287 276 263 248 273 330 353 9 26 33 20 357 26 53 78 101 96 82 82 71 52 55 108 109 108 166 155 140 201 300 12 68 34 2 25 55 24 14 48 62 61 14 9 27 32 6 349 20 62 57 24 38 98 138 157 143 134 133 132 129 119 100 98 109 113 105 96 94 96 100 102 102 104 109 111 112 118 118 119 125 127 125 131 137 131 126 130
264 237 224 210 51 40 17 335 359 41 54 18 23 40 40 57 71 48 24 25 17 9 47 95 130 189 100 97 119 303 74 110 53 32 51 118 59 36 41 51 69 70 35 357 311 33 40 24 47 69 26 332 35 139 160 148 136 135 132 129 123 115 116 118 110 103 100 100 103 109 111 112 118 127 126 125 126 126 136 147 145 138 140 144 139 135 138
177 178 153 70 83 139 209 321 6 66 87 39 26 34 13 23 63 61 333 352 13 351 23 89 145 171 110 99 80 299 86 91 66 49 54 140 106 88 79 60 56 68 64 0 306 63 66 20 11 58 40 324 287 165 141 105 107 115 120 125 129 132 133 132 128 128 134 143 151 154 149 144 146 147 134 124 115 108 131 146 147 144 146 147 144 143 144
120 122 78 55 71 171 230 26 62 90 88 25 23 50 51 27 68 160 159 32 35 326 276 126 153 187 130 120 124 345 26 87 120 139 132 120 148 133 109 103 86 69 66 0 322 66 91 67 26 78 144 234 234 189 129 114 124 135 130 132 142 149 150 148 148 148 146 147 155 161 159 156 155 155 156 156 146 133 144 159 162 164 163 159 159 158 154
32 62 65 347 348 26 51 69 69 67 65 37 20 40 86 79 331 51 77 70 1 269 253 113 108 87 63 113 124 127 16 52 134 128 104 46 24 79 85 116 93 75 79 254 277 75 88 81 55 126 203 222 221 173 135 139 153 148 137 142 154 158 155 148 148 151 145 138 144 160 164 163 163 165 169 172 171 169 171 170 169 176 178 172 168 167 163
320 262 258 322 347 32 46 54 51 40 52 83 49 8 21 158 240 37 92 140 212 238 212 115 135 155 171 140 132 139 146 3 68 88 86 62 56 95 93 13 40 75 146 237 3 62 68 86 121 230 230 219 197 163 154 170 181 164 153 158 163 163 160 154 153 161 162 158 158 167 171 172 174 176 179 181 180 178 177 175 176 182 182 174 168 167 168
293 193 180 29 26 30 29 31 39 40 51 78 80 36 340 4 33 80 200 267 262 110 113 160 157 127 94 75 85 91 99 96 54 75 84 86 346 77 69 36 44 110 194 271 58 66 96 159 190 222 221 195 178 177 176 179 179 163 160 169 172 170 168 162 158 164 171 170 171 175 178 180 183 185 187 187 184 182 185 186 182 179 175 170 168 169 171
109 106 67 33 9 24 49 176 188 131 149 179 133 143 171 221 232 161 188 245 226 159 160 163 132 118 113 89 80 70 45 74 70 69 83 72 27 60 78 76 256 224 224 44 60 91 214 216 218 217 192 167 177 185 176 169 163 149 144 158 164 160 156 154 152 150 152 161 168 171 174 178 181 182 187 190 187 183 183 184 179 173 170 169 169 171 172
145 33 47 51 4 349 146 193 322 88 186 201 169 149 164 184 198 201 205 205 163 135 135 128 116 113 117 289 84 96 35 44 58 59 99 79 49 50 128 182 138 61 66 64 70 101 250 244 225 189 167 169 180 180 171 170 169 154 137 133 148 154 152 151 151 149 147 150 155 157 161 165 168 169 178 188 188 181 175 174 174 173 171 170 171 173 176
174 140 101 104 331 278 140 130 308 235 195 199 183 168 169 177 192 208 210 168 116 125 139 137 117 110 107 308 63 90 60 62 67 50 74 91 82 70 214 149 75 56 54 51 234 229 234 230 209 181 173 173 171 169 169 167 158 149 144 145 161 170 164 158 156 156 156 155 154 153 155 158 160 163 169 176 177 174 170 171 174 175 174 172 173 175 178
202 63 100 111 157 337 110 183 222 209 197 196 191 187 185 178 183 206 200 149 141 140 130 102 90 100 106 99 95 73 20 51 79 59 27 90 99 352 0 59 98 157 146 182 231 241 242 228 199 183 176 166 155 155 160 159 159 164 162 156 161 171 170 162 156 155 157 156 153 152 154 156 157 160 163 163 165 167 168 171 175 178 177 176 177 178 181
206 85 113 135 174 172 186 219 211 180 208 238 221 215 196 154 147 192 226 160 141 135 125 111 103 96 57 40 85 93 12 38 83 108 2 92 100 40 24 36 301 248 183 182 210 228 227 207 189 177 167 157 151 154 160 164 170 173 164 152 157 168 168 161 154 154 157 157 154 153 156 157 158 162 163 163 165 168 169 172 178 182 181 180 184 187 192
264 98 136 139 143 178 211 205 145 156 279 309 343 179 154 136 157 215 232 138 125 134 140 131 121 115 74 9 71 81 34 38 96 77 25 56 94 136 126 132 238 257 234 208 213 225 219 193 168 156 154 153 153 159 165 166 170 172 165 161 163 166 163 159 157 157 159 160 159 160 161 161 160 163 166 168 172 177 176 176 180 183 185 185 186 189 195
278 112 141 129 123 183 251 100 108 244 294 314 150 190 165 130 146 215 212 140 131 117 84 76 84 93 88 57 62 57 338 244 129 103 78 154 167 149 130 177 217 226 228 223 219 216 201 169 150 149 157 161 159 162 165 164 169 174 169 163 162 163 163 161 160 161 164 166 166 166 166 166 164 166 168 172 177 181 182 184 187 189 189 189 188 188 192
339 348 201 159 152 168 175 146 149 203 234 209 195 205 181 146 161 195 180 145 120 93 88 105 101 72 65 63 77 122 212 155 87 96 175 224 176 139 155 222 229 221 224 234 226 201 178 164 156 154 159 161 161 164 165 165 169 171 166 161 161 162 163 162 162 165 169 171 169 168 171 175 174 173 174 175 176 177 182 192 199 200 197 195 195 195 196
111 140 227 197 146 148 150 143 157 194 205 203 203 199 182 177 192 191 158 129 117 121 142 152 97 82 93 162 190 143 104 62 56 90 220 231 189 163 183 211 221 212 215 230 225 188 175 176 168 161 161 164 165 164 162 162 165 166 164 161 161 162 163 165 167 168 170 172 173 176 179 181 179 175 171 169 169 172 181 192 200 204 204 203 204 206 207